When you browse on this site, cookies collect data to enhance your experience and personalize the content and advertising you see.
Visit our Privacy Policy to learn more. By continuing to use the site, you agree to this use of cookies and data.
  • In Switzerland
  • List of Countries
  • For 7 days
  • Water Temperature
  • Satellite Maps
  • Weather Map
  • Weather Widgets
  • user-avatar
    Login

    Hourly Weather Kerns

    Today, 23 May, Thursday

    Time Temperature Precipitation Wind Pressure Humidity
    00:00 +23°C° 0.3 mm 5 mps 762 mmHg 95%
    01:00 +23°C° 0.3 mm 5 mps 762 mmHg 95%
    02:00 +22°C° 0.3 mm 5 mps 762 mmHg 95%
    03:00 +22°C° 0.3 mm 5 mps 762 mmHg 96%
    04:00 +22°C° 0.3 mm 5 mps 762 mmHg 96%
    05:00 +22°C° 0.2 mm 5 mps 762 mmHg 96%
    06:00 +22°C° 0.2 mm 5 mps 762 mmHg 96%
    07:00 +22°C° 0.2 mm 5 mps 762 mmHg 96%
    08:00 +23°C° 0.1 mm 5 mps 763 mmHg 90%
    09:00 +26°C° 0.1 mm 6 mps 763 mmHg 84%
    10:00 +27°C° 0.1 mm 6 mps 763 mmHg 78%
    11:00 +27°C° 0.1 mm 6 mps 763 mmHg 75%
    12:00 +28°C° 0.1 mm 6 mps 762 mmHg 72%
    13:00 +28°C° 0.1 mm 6 mps 762 mmHg 69%
    14:00 +28°C° 0.1 mm 6 mps 762 mmHg 71%
    15:00 +28°C° 0.1 mm 6 mps 761 mmHg 73%
    16:00 +27°C° 0.1 mm 6 mps 761 mmHg 75%
    17:00 +26°C° 0.1 mm 5 mps 761 mmHg 81%
    18:00 +25°C° 0.1 mm 5 mps 762 mmHg 86%
    19:00 +23°C° 0.1 mm 5 mps 762 mmHg 92%
    20:00 +23°C° 0.1 mm 5 mps 762 mmHg 92%
    21:00 +22°C° 0.1 mm 5 mps 763 mmHg 92%
    22:00 +22°C° 0.1 mm 5 mps 763 mmHg 92%
    23:00 +22°C° 0.1 mm 5 mps 763 mmHg 93%

    Tomorrow, 24 May, Friday

    Time Temperature Precipitation Wind Pressure Humidity
    00:00 +22°C° 0.1 mm 5 mps 762 mmHg 93%
    01:00 +22°C° 0.1 mm 5 mps 762 mmHg 93%
    02:00 +22°C° 0.1 mm 5 mps 762 mmHg 93%
    03:00 +22°C° 0.1 mm 4 mps 762 mmHg 93%
    04:00 +22°C° 0.1 mm 4 mps 761 mmHg 93%
    05:00 +22°C° 0 mm 4 mps 761 mmHg 93%
    06:00 +22°C° 0 mm 4 mps 762 mmHg 93%
    07:00 +22°C° 0 mm 4 mps 762 mmHg 93%
    08:00 +23°C° 0 mm 5 mps 762 mmHg 87%
    09:00 +26°C° 0 mm 5 mps 762 mmHg 80%
    10:00 +27°C° 0 mm 5 mps 763 mmHg 73%
    11:00 +27°C° 0 mm 5 mps 762 mmHg 71%
    12:00 +28°C° 0 mm 5 mps 762 mmHg 69%
    13:00 +28°C° 0 mm 5 mps 761 mmHg 67%
    14:00 +28°C° 0 mm 5 mps 761 mmHg 69%
    15:00 +28°C° 0 mm 5 mps 760 mmHg 70%
    16:00 +27°C° 0 mm 5 mps 760 mmHg 72%
    17:00 +26°C° 0 mm 4 mps 760 mmHg 78%
    18:00 +25°C° 0 mm 4 mps 761 mmHg 85%
    19:00 +22°C° 0 mm 4 mps 761 mmHg 92%
    20:00 +22°C° 0 mm 4 mps 762 mmHg 92%
    21:00 +22°C° 0 mm 4 mps 762 mmHg 93%
    22:00 +22°C° 0 mm 4 mps 762 mmHg 93%
    23:00 +22°C° 0 mm 3 mps 762 mmHg 94%

    Day after tomorrow, 25 May, Saturday

    Time Temperature Precipitation Wind Pressure Humidity
    00:00 +21°C° 0 mm 3 mps 762 mmHg 94%
    01:00 +21°C° 0 mm 3 mps 762 mmHg 95%
    02:00 +21°C° 0 mm 3 mps 761 mmHg 95%
    03:00 +21°C° 0 mm 3 mps 761 mmHg 95%
    04:00 +21°C° 0 mm 3 mps 760 mmHg 95%
    05:00 +21°C° 0 mm 3 mps 761 mmHg 95%
    06:00 +21°C° 0 mm 3 mps 761 mmHg 95%
    07:00 +21°C° 0 mm 3 mps 761 mmHg 95%
    08:00 +24°C° 0.1 mm 3 mps 761 mmHg 88%
    09:00 +26°C° 0.1 mm 4 mps 761 mmHg 81%
    10:00 +27°C° 0.1 mm 4 mps 762 mmHg 74%
    11:00 +27°C° 0.1 mm 4 mps 761 mmHg 74%
    12:00 +28°C° 0.1 mm 4 mps 761 mmHg 73%
    13:00 +28°C° 0.1 mm 4 mps 760 mmHg 73%
    14:00 +28°C° 0.1 mm 4 mps 760 mmHg 74%
    15:00 +28°C° 0.1 mm 4 mps 759 mmHg 75%
    16:00 +27°C° 0.1 mm 4 mps 759 mmHg 76%
    17:00 +26°C° 0.1 mm 3 mps 760 mmHg 82%
    18:00 +25°C° 0.1 mm 3 mps 760 mmHg 89%
    19:00 +22°C° 0.1 mm 3 mps 760 mmHg 96%
    20:00 +22°C° 0.1 mm 3 mps 761 mmHg 96%
    21:00 +22°C° 0.1 mm 3 mps 761 mmHg 96%
    22:00 +22°C° 0.1 mm 3 mps 761 mmHg 97%
    23:00 +22°C° 0 mm 3 mps 761 mmHg 96%

    26 May, Sunday

    Time Temperature Precipitation Wind Pressure Humidity
    00:00 +21°C° 0 mm 3 mps 761 mmHg 96%
    01:00 +21°C° 0 mm 3 mps 761 mmHg 96%
    02:00 +21°C° 0 mm 3 mps 760 mmHg 96%
    03:00 +21°C° 0 mm 3 mps 760 mmHg 96%
    04:00 +21°C° 0 mm 3 mps 760 mmHg 96%
    05:00 +21°C° 0 mm 3 mps 760 mmHg 95%
    06:00 +21°C° 0 mm 3 mps 761 mmHg 95%
    07:00 +21°C° 0 mm 3 mps 761 mmHg 95%
    08:00 +24°C° 0 mm 3 mps 761 mmHg 87%
    09:00 +26°C° 0 mm 4 mps 761 mmHg 79%
    10:00 +28°C° 0 mm 4 mps 762 mmHg 71%
    11:00 +28°C° 0 mm 4 mps 761 mmHg 69%
    12:00 +29°C° 0 mm 4 mps 760 mmHg 66%
    13:00 +29°C° 0 mm 4 mps 760 mmHg 63%
    14:00 +29°C° 0 mm 4 mps 760 mmHg 66%
    15:00 +28°C° 0 mm 4 mps 759 mmHg 68%
    16:00 +28°C° 0 mm 4 mps 759 mmHg 70%
    17:00 +26°C° 0 mm 4 mps 760 mmHg 77%
    18:00 +25°C° 0 mm 4 mps 760 mmHg 85%
    19:00 +22°C° 0 mm 4 mps 761 mmHg 92%
    20:00 +22°C° 0 mm 4 mps 761 mmHg 92%
    21:00 +22°C° 0 mm 4 mps 762 mmHg 93%
    22:00 +22°C° 0 mm 4 mps 762 mmHg 93%
    23:00 +22°C° 0 mm 4 mps 762 mmHg 93%

    27 May, Monday

    Time Temperature Precipitation Wind Pressure Humidity
    00:00 +22°C° 0 mm 3 mps 761 mmHg 93%
    01:00 +22°C° 0 mm 3 mps 761 mmHg 93%
    02:00 +22°C° 0 mm 3 mps 761 mmHg 93%
    03:00 +22°C° 0 mm 3 mps 761 mmHg 94%
    04:00 +21°C° 0 mm 3 mps 761 mmHg 95%
    05:00 +21°C° 0 mm 3 mps 761 mmHg 94%
    06:00 +21°C° 0 mm 3 mps 761 mmHg 94%
    07:00 +21°C° 0 mm 3 mps 762 mmHg 94%
    08:00 +23°C° 0 mm 4 mps 762 mmHg 86%
    09:00 +25°C° 0 mm 4 mps 762 mmHg 78%
    10:00 +27°C° 0 mm 4 mps 762 mmHg 71%
    11:00 +28°C° 0.1 mm 4 mps 761 mmHg 68%
    12:00 +28°C° 0.1 mm 5 mps 761 mmHg 66%
    13:00 +29°C° 0.1 mm 5 mps 760 mmHg 64%
    14:00 +28°C° 0.1 mm 5 mps 760 mmHg 67%
    15:00 +28°C° 0.1 mm 5 mps 760 mmHg 70%
    16:00 +27°C° 0.1 mm 4 mps 760 mmHg 73%
    17:00 +26°C° 0 mm 4 mps 760 mmHg 79%
    18:00 +23°C° 0 mm 4 mps 761 mmHg 84%
    19:00 +22°C° 0 mm 4 mps 761 mmHg 90%
    20:00 +22°C° 0 mm 3 mps 761 mmHg 91%
    21:00 +22°C° 0 mm 3 mps 762 mmHg 92%
    22:00 +22°C° 0 mm 3 mps 762 mmHg 94%
    23:00 +22°C° 0 mm 3 mps 762 mmHg 94%

    28 May, Tuesday

    Time Temperature Precipitation Wind Pressure Humidity
    00:00 +22°C° 0 mm 3 mps 761 mmHg 94%
    01:00 +22°C° 0 mm 3 mps 761 mmHg 94%
    02:00 +21°C° 0 mm 3 mps 761 mmHg 94%
    03:00 +21°C° 0 mm 3 mps 761 mmHg 94%
    04:00 +21°C° 0 mm 3 mps 760 mmHg 94%
    05:00 +21°C° 0 mm 3 mps 761 mmHg 94%
    06:00 +21°C° 0 mm 3 mps 761 mmHg 94%
    07:00 +21°C° 0 mm 3 mps 761 mmHg 95%
    08:00 +24°C° 0.1 mm 3 mps 762 mmHg 87%
    09:00 +26°C° 0.1 mm 4 mps 762 mmHg 79%
    10:00 +27°C° 0.1 mm 4 mps 762 mmHg 71%
    11:00 +28°C° 0 mm 4 mps 761 mmHg 67%
    12:00 +29°C° 0 mm 4 mps 761 mmHg 63%
    13:00 +29°C° 0 mm 4 mps 760 mmHg 59%
    14:00 +29°C° 0 mm 4 mps 760 mmHg 61%
    15:00 +28°C° 0 mm 4 mps 760 mmHg 63%
    16:00 +28°C° 0 mm 4 mps 760 mmHg 65%
    17:00 +26°C° 0 mm 4 mps 760 mmHg 74%
    18:00 +25°C° 0 mm 4 mps 761 mmHg 82%
    19:00 +22°C° 0 mm 3 mps 761 mmHg 91%
    20:00 +22°C° 0 mm 3 mps 762 mmHg 92%
    21:00 +21°C° 0 mm 3 mps 762 mmHg 93%
    22:00 +21°C° 0 mm 3 mps 762 mmHg 94%
    23:00 +21°C° 0 mm 3 mps 762 mmHg 93%
    Show more